Regional Weather Roundup
Issued by NWS

Home | Current Version | Previous Version | Text Only | Print | Product List | Glossary Off
Versions: 1 2 3 4 5 6 7 8 9 10 11 12 13 14 15 16 17 18 19 20 21 22 23 24 25 26 27 28 29 30 31 32 33 34 35 36 37 38 39 40 41 42 43 44 45 46 47 48 49 50

000
ASUS45 KTFX 212319
RWRMT
MONTANA HOURLY WEATHER ROUNDUP
NATIONAL WEATHER SERVICE GREAT FALLS MT
419 PM MST SUN DEC 21 2014

NOTE: "FAIR" INDICATES FEW OR NO CLOUDS BELOW 12000 FEET WITH NO
SIGNIFICANT WEATHER AND/OR OBSTRUCTIONS TO VISIBILITY.

* THESE STATIONS ARE NOT UNDER NWS QUALITY CONTROL. THEY DO NOT
   REPORT WEATHER SUCH AS PRECIPITATION OR FOG.

MTZ001>007-043-220000-
WEST OF THE DIVIDE
CITY           SKY/WX    TMP DP  RH WIND       PRES   REMARKS
KALISPELL      CLOUDY    43  28  56 SW9       29.69R
MISSOULA       PTSUNNY   37  34  89 NW14      29.78R WCI  28
BUTTE          LGT SNOW  32  28  85 W15G28    29.71R VSB 1 1/4 WCI  22
MULLAN PASS    PTSUNNY  N/A N/A N/A N/A       29.75R
* EUREKA APT   PTCLDY    46  27  48 SW9       29.70R
* HAMILTON APT PTSUNNY   37  34  89 N16       29.78R WCI  28
* LIBBY APT    PTCLDY    43  30  60 CALM      29.76R
* LINCOLN      N/A       39  25  57 W9G28      N/A   WCI  33
* POLSON       N/A       42  28  58 N5G11      N/A
* RONAN APT    PTCLDY    45  32  60 N/A        N/A
* SEELEY LAKE  N/A       40  24  53 NW11G24    N/A   WCI  33
* THOMP F APT  PTSUNNY   35  31  85 SW3G11     N/A
* YAAK HILL    N/A       47  26  44 S1         N/A
$$

MTZ008-052>055-220000-
SOUTHWEST MONTANA
CITY           SKY/WX    TMP DP  RH WIND       PRES   REMARKS
BOZEMAN        LGT SNOW  36  30  79 NW14      29.68R WCI  27
DILLON         PTCLDY    37  25  62 W24G35    29.71R WCI  26
* W YELLOWSTON PTSUNNY   32  24  72 SW7G13     N/A   WCI  25
* THREE FORKS  PTSUNNY   39  39 100 N/A        N/A
* BOULDER HILL N/A       35  14  42 VRB13G29    N/A   WCI  26
* MONIDA PASS  N/A       33  18  54 NW27G36    N/A   WCI  20
* RAYNOLDS PAS N/A       34  29  82 NW6G12     N/A   WCI  29
* WHITEHALL    N/A       39  30  70 N7         N/A   WCI  34
* WISE RIVER   N/A       35  26  70 W20G37     N/A   WCI  24
$$

MTZ009>010-012-014-046-048-049-054-220000-
EAST SLOPES AND CENTRAL MONTANA
CITY           SKY/WX    TMP DP  RH WIND       PRES   REMARKS
CUT BANK       PTSUNNY   39  28  65 W28G35    29.51R WCI  27
GREAT FALLS    CLOUDY    43  23  45 W22G31    29.52R
HELENA         PTCLDY    43  23  45 W29G38    29.61R
MALMSTROM AFB  CLOUDY    45  23  42 W18G26    29.55R
* CONRAD       PTSUNNY   41  30  65 W23G32     N/A
* DEARBORN     N/A       47  20  34 S16G25     N/A
* EAST GLACIER N/A       34  26  73 W6G17      N/A   WCI  29
* MONARCH      N/A       36  15  42 W28G37     N/A   WCI  23
* PENDROY      N/A       39  25  57 NW29G35    N/A   WCI  27
* ROGERS PASS  N/A       34  18  52 NE6G20     N/A   WCI  29
* SWEET GRASS  N/A       39  28  65 W22G31     N/A   WCI  29
* WHITE SULPH  N/A       38  20  48 W9G26      N/A   WCI  32
$$

MTZ011-013-016-021-035-040-045-047-050-051-220000-
NORTH CENTRAL MONTANA
CITY           SKY/WX    TMP DP  RH WIND       PRES   REMARKS
HAVRE          CLOUDY    43  32  65 W16       29.43R
LEWISTOWN      CLOUDY    43  27  53 NW21G31   29.48R
* N BAR RANCH  PTSUNNY   41  25  53 NW30G39   29.43R
* CHINOOK      CLOUDY    43  32  65 W17G24    29.40R
* CHESTER      N/A       41  30  65 NW18G29    N/A
* DENTON       N/A       41  26  55 NW25G31    N/A
* GEYSER       N/A       41  20  43 W27G38     N/A
* JUDITH GAP   N/A       41  22  47 NW27G35    N/A
* LOMA         N/A       46  29  52 SW17G29    N/A
$$

MTZ017>020-022>027-061-062-220000-
NORTHEAST MONTANA
CITY           SKY/WX    TMP DP  RH WIND       PRES   REMARKS
GLASGOW        CLOUDY    34  30  85 CALM      29.33R
GLENDIVE       CLOUDY    36  34  92 S8        29.36R WCI  30
JORDAN         CLOUDY    41  36  82 W12       29.36R
SIDNEY         CLOUDY    36  30  79 S8        29.36S WCI  30
WOLF POINT     LGT RAIN  34  30  85 SW6       29.34R WCI  29
* BEAVER HILL  N/A       36  35  96 SW9        N/A   WCI  29
* CIRCLE       N/A       37  35  92 SW5        N/A   WCI  33
* LINDSAY DVD  N/A       37  36  96 SW11       N/A   WCI  29
* PLENTYWOOD A PTSUNNY   32  28  85 CALM      29.33R
* POPLAR APT   CLOUDY    34  28  79 CALM      29.33R
* SACO         N/A       33  31  92 N/A        N/A
$$

MTZ028>042-056>058-220000-
SOUTHCENTRAL AND SOUTHEAST MONTANA
CITY           SKY/WX    TMP DP  RH WIND       PRES   REMARKS
BAKER          CLOUDY    37  37 100 W7        29.36R WCI  32
BILLINGS       PTSUNNY   48  19  32 W24G41    29.49R
LIVINGSTON     LGT RAIN  39  28  65 W29G38    29.59R WCI  27
MILES CITY     LGT RAIN  41  36  82 W14G30    29.39R
* BIG TIMBER A PTCLDY    43  21  42 W33G43    29.55R
* FORSYTH APT  PTSUNNY   45  36  71 W14G20    29.42R
* LAUREL APT   PTSUNNY   48  19  32 W16G28     N/A
* ROUNDUP APT  CLOUDY    46  25  44 W16G24     N/A
* ALZADA       N/A       40  35  82 W9         N/A   WCI  34
* HYSHAM       N/A       43  26  51 W15G29     N/A
* LAME DEER    N/A       43  26  51 W17G30     N/A
* REED POINT   N/A       47  23  39 W34G47     N/A
* ROSCOE HILL  N/A       40  12  32 SW5G17     N/A   WCI  36
$$

REGIONAL REPORTS...DAKOTAS
CITY           SKY/WX    TMP DP  RH WIND       PRES   REMARKS
WILLISTON      CLOUDY    36  28  73 CALM      29.34R
DICKINSON      CLOUDY    37  28  70 S5        29.33S WCI  33
BEACH          LGT RAIN  36  36 100 SW9       29.36R VSB 3    WCI  29
CROSBY         PTSUNNY   32  32 100 SE6       29.36R WCI  26
TIOGA          CLOUDY    32  32 100 S8        29.37S WCI  25
WATFORD CITY   PTSUNNY   36  28  73 S6        29.33R WCI  31
BISMARCK       SUNNY     28  25  89 SE7       29.43S WCI  21
GRAND FORKS    FOG       32  30  92 SE14      29.60S WCI  22
FARGO          CLOUDY    34  30  85 SE14      29.59S WCI  24
BUFFALO SD     CLOUDY    37  36  96 SW6       29.32R WCI  32
RAPID CITY     CLOUDY    43  27  53 N9        29.40R
$$

REGIONAL REPORTS...WYOMING/IDAHO/WASHINGTON
CITY           SKY/WX    TMP DP  RH WIND       PRES   REMARKS
GILLETTE       PTSUNNY   41  30  65 W8        29.45R
SHERIDAN       CLOUDY    45  25  45 NW26G43   29.46R
CODY           CLOUDY    34  30  85 W10G18    29.58R WCI  26
YELLOWSTONE LA PTCLDY    28  21  75 W14G24    29.69R WCI  17
SALMON         PTSUNNY   43  25  49 NW9G26    29.79R
MULLAN PASS    PTSUNNY  N/A N/A N/A N/A       29.75S
SAND POINT     CLOUDY    46  36  68 SW6       29.80R
SPOKANE        PTSUNNY   46  37  71 W17       29.85R
$$

REGIONAL REPORTS...ALBERTA
CITY           SKY/WX    TMP DP  RH WIND       PRES   REMARKS
CALGARY        PTCLDY    37  27  67 N13G21    29.50R WCI  29
LETHBRIDGE     PTSUNNY   39  30  70 W20G26    29.49R WCI  29
MEDICINE HAT   CLOUDY    32  30  92 W14       29.44R WCI  22
EDMONTON       CLOUDY    25  19  78 NW6       29.49R WCI  18
WATERTON GATE  N/A       37  27  67 SW15G25    N/A   WCI  28
CARDSTON       N/A       39  28  65 W13G22     N/A   WCI  31
MILK RIVER     N/A       37  30  76 W21        N/A   WCI  26
$$

REGIONAL REPORTS...SASKATCHEWAN
CITY           SKY/WX    TMP DP  RH WIND       PRES   REMARKS
SWIFT CURRENT  LGT RAIN  36  32  85 W15       29.27R WCI  27
REGINA         SUNNY     25  23  92 E13       29.35R WCI  13
VAL MARIE      N/A       32  32 100 SW2        N/A
ASSINIBOIA     N/A       32  27  82 SE5        N/A   WCI  27
CORONACH       N/A       32  27  82 E2         N/A

$$




USA.gov is the U.S. government's official web portal to all federal, state and local government web resources and services.